Weather History for EHLW - October, 2013

Change the Weather History Date:

Friday, October 4, 2013

  Actual Average Record
Temperature  
Mean Temperature 58 °F -  
Max Temperature 67 °F 54 °F 69 °F (2010)
Min Temperature 49 °F 43 °F 37 °F (2005)
Degree Days  
Heating Degree Days 7    
Growing Degree Days 8 (Base 50)    
Moisture  
Dew Point 52 °F    
Average Humidity 83    
Maximum Humidity 100    
Minimum Humidity 44    
Precipitation  
Precipitation 0.12 in - - ()
Sea Level Pressure  
Sea Level Pressure 29.90 in    
Wind  
Wind Speed 12 mph ()    
Max Wind Speed 15 mph    
Max Gust Speed -    
Visibility 6.0 miles    
Events Rain    
Averages and records for this station are not official NWS values.
T = Trace of Precipitation, MM = Missing Value Source: Averaged Metar Reports

Daily Weather History Graph

Daily Weather History Graph

Search for Another Location

Airport or City:

Trip Planner

Search our weather history database for the weather conditions in past years. The results will help you decide how hot, cold, wet, or windy it might be!

Date:

Astronomy

Oct. 04, 2013 Rise Set
Actual Time 7:43 AM CEST 7:06 PM CEST
Civil Twilight 7:09 AM CEST 7:41 PM CEST
Nautical Twilight 6:28 AM CEST 8:21 PM CEST
Astronomical Twilight 5:47 AM CEST 9:02 PM CEST
Moon 7:02 AM CEST (10/4) 6:36 PM CEST (10/4)
Length of Visible Light 12h 31m
Length of Day
11h 22m
Waning Crescent, 0% of the Moon is Illuminated
Oct 4
Waning Crescent
Oct 5
New
Oct 12
First Quarter
Oct 19
Full
Oct 27
Last Quarter

Hourly Weather History & Observations

Time (CEST) Temp. Dew Point Humidity Pressure Visibility Wind Dir Wind Speed Gust Speed Precip Events Conditions
12:25 AM 53.6 °F 35.6 °F 51% 29.95 in 6.2 mi SE 15.0 mph - N/A   Overcast
12:55 AM 53.6 °F 37.4 °F 54% 29.95 in 6.2 mi SE 13.8 mph - N/A   Overcast
1:25 AM 53.6 °F 37.4 °F 54% 29.95 in 6.2 mi SE 13.8 mph - N/A   Overcast
1:55 AM 55.4 °F 37.4 °F 51% 29.95 in 6.2 mi SSE 12.7 mph - N/A   Overcast
2:00 AM 54 °F 38 °F 44% 29.95 in 28 mi SSE 13.4 mph - -   Partly Cloudy
2:25 AM 53.6 °F 41.0 °F 62% 29.95 in 6.2 mi SSE 12.7 mph - N/A Rain Light Rain
2:55 AM 53.6 °F 41.0 °F 62% 29.92 in 6.2 mi SSE 13.8 mph - N/A Rain Light Rain
3:25 AM 50.0 °F 42.8 °F 76% 29.92 in 6.2 mi SSE 13.8 mph - N/A   Mostly Cloudy
3:55 AM 51.8 °F 44.6 °F 76% 29.92 in 6.2 mi SSE 12.7 mph - N/A   Overcast
4:25 AM 51.8 °F 42.8 °F 71% 29.92 in 6.2 mi SSE 12.7 mph - N/A   Overcast
4:42 AM 51.8 °F 44.6 °F 76% 29.92 in 6.2 mi SSE 12.7 mph - N/A   Overcast
4:55 AM 51.8 °F 42.8 °F 71% 29.92 in 6.2 mi South 11.5 mph - N/A Rain Light Rain
4:56 AM 51.8 °F 44.6 °F 76% 29.92 in 6.2 mi South 11.5 mph - N/A Rain Light Rain
5:01 AM 50.0 °F 44.6 °F 82% 29.92 in 3.7 mi South 11.5 mph - N/A Rain Light Rain Showers
5:06 AM 50.0 °F 44.6 °F 82% 29.92 in 5.0 mi SSE 11.5 mph - N/A Rain Rain Showers
5:12 AM 50.0 °F 44.6 °F 82% 29.92 in 6.2 mi SSE 12.7 mph - N/A Rain Light Rain Showers
5:17 AM 50.0 °F 44.6 °F 82% 29.92 in 6.2 mi SSE 12.7 mph - N/A Rain Light Rain
5:25 AM 50.0 °F 44.6 °F 82% 29.92 in 6.2 mi SSE 13.8 mph - N/A Rain Light Rain
5:35 AM 50.0 °F 44.6 °F 82% 29.92 in - SSE 12.7 mph - N/A   Mostly Cloudy
5:38 AM 50.0 °F 46.4 °F 87% 29.92 in 6.2 mi SSE 11.5 mph - N/A Rain Light Rain
5:44 AM 50.0 °F 46.4 °F 87% 29.89 in 3.1 mi SSE 11.5 mph - N/A Rain Rain Showers
5:47 AM 50.0 °F 46.4 °F 87% 29.89 in 5.0 mi SSE 11.5 mph - N/A Rain Rain Showers
6:25 AM 50.0 °F 46.4 °F 87% 29.89 in 6.2 mi SSE 15.0 mph - N/A   Overcast
6:31 AM 50.0 °F 46.4 °F 87% 29.89 in 6.2 mi SSE 13.8 mph - N/A   Overcast
6:32 AM 50.0 °F 46.4 °F 87% 29.89 in 6.2 mi SSE 13.8 mph - N/A   Overcast
6:55 AM 50.0 °F 46.4 °F 87% 29.89 in 6.2 mi SSE 12.7 mph - N/A   Overcast
7:01 AM 50.0 °F 44.6 °F 82% 29.89 in 6.2 mi SSE 12.7 mph - N/A   Mostly Cloudy
7:02 AM 50.0 °F 44.6 °F 82% 29.89 in 6.2 mi SSE 13.8 mph - N/A   Mostly Cloudy
7:25 AM 50.0 °F 44.6 °F 82% 29.89 in 6.2 mi SSE 11.5 mph - N/A   Overcast
7:55 AM 51.8 °F 44.6 °F 76% 29.89 in 6.2 mi SSE 12.7 mph - N/A   Overcast
8:00 AM 51 °F 45 °F 74% 29.91 in 22 mi SSE 13.4 mph - -   Partly Cloudy
8:25 AM 51.8 °F 46.4 °F 82% 29.89 in 6.2 mi SSE 12.7 mph - N/A   Partly Cloudy
8:55 AM 51.8 °F 46.4 °F 82% 29.89 in 6.2 mi SSE 11.5 mph - N/A   Overcast
9:25 AM 53.6 °F 48.2 °F 82% 29.89 in 6.2 mi SSE 15.0 mph - N/A   Mostly Cloudy
9:46 AM 51.8 °F 50.0 °F 94% 29.89 in 4.3 mi SSE 11.5 mph - N/A Rain Light Rain Showers
9:55 AM 51.8 °F 50.0 °F 94% 29.89 in 5.6 mi SSE 13.8 mph - N/A Rain Rain Showers
10:02 AM 51.8 °F 50.0 °F 94% 29.89 in - SSE 12.7 mph - N/A Rain Rain Showers
10:06 AM 51.8 °F 51.8 °F 100% 29.89 in 3.7 mi SSE 12.7 mph - N/A Rain Rain
10:18 AM 53.6 °F 51.8 °F 94% 29.89 in 3.7 mi SSE 11.5 mph - N/A Rain Light Rain Showers
10:25 AM 53.6 °F 53.6 °F 100% 29.89 in 5.0 mi SE 12.7 mph - N/A Rain Light Rain Showers
10:38 AM 55.4 °F 53.6 °F 94% 29.86 in 5.6 mi SSE 11.5 mph - N/A   Overcast
10:46 AM 55.4 °F 53.6 °F 94% 29.89 in 5.6 mi South 9.2 mph - N/A   Overcast
10:47 AM 55.4 °F 53.6 °F 94% 29.89 in 5.6 mi South 9.2 mph - N/A   Overcast
10:55 AM 55.4 °F 53.6 °F 94% 29.89 in 5.0 mi South 11.5 mph - N/A   Overcast
11:25 AM 55.4 °F 53.6 °F 94% 29.89 in 6.2 mi South 11.5 mph - N/A   Overcast
11:29 AM 55.4 °F 53.6 °F 94% 29.89 in 6.2 mi South 11.5 mph - N/A   Overcast
11:31 AM 55.4 °F 53.6 °F 94% 29.89 in 6.2 mi SSE 11.5 mph - N/A   Mostly Cloudy
11:37 AM 55.4 °F 53.6 °F 94% 29.89 in 6.2 mi South 11.5 mph - N/A   Mostly Cloudy
11:41 AM 55.4 °F 53.6 °F 94% 29.89 in 6.2 mi South 11.5 mph - N/A   Mostly Cloudy
11:55 AM 57.2 °F 53.6 °F 88% 29.89 in 6.2 mi South 11.5 mph - N/A   Overcast
12:09 PM 57.2 °F 55.4 °F 94% 29.89 in 6.2 mi South 10.4 mph - N/A   Overcast
12:13 PM 59.0 °F 55.4 °F 88% 29.89 in 6.2 mi South 11.5 mph - N/A   Mostly Cloudy
12:25 PM 59.0 °F 57.2 °F 94% 29.89 in 6.2 mi South 12.7 mph - N/A Rain Light Rain
12:29 PM 59.0 °F 57.2 °F 94% 29.89 in 6.2 mi South 12.7 mph - N/A   Mostly Cloudy
12:35 PM 60.8 °F 57.2 °F 88% 29.89 in 6.2 mi South 12.7 mph - N/A   Overcast
12:39 PM 60.8 °F 57.2 °F 88% 29.89 in 6.2 mi South 12.7 mph - N/A   Overcast
12:43 PM 60.8 °F 57.2 °F 88% 29.89 in 6.2 mi South 13.8 mph - N/A   Mostly Cloudy
12:55 PM 62.6 °F 57.2 °F 82% 29.89 in 6.2 mi South 15.0 mph - N/A   Scattered Clouds
12:59 PM 60.8 °F 57.2 °F 88% 29.89 in 6.2 mi South 15.0 mph - N/A   Mostly Cloudy
1:25 PM 62.6 °F 59.0 °F 88% 29.89 in 6.2 mi South 13.8 mph - N/A   Overcast
1:55 PM 62.6 °F 59.0 °F 88% 29.89 in 6.2 mi South 15.0 mph - N/A   Overcast
2:00 PM 63 °F 59 °F 83% 29.91 in 10 mi South 13.4 mph - -   Partly Cloudy
2:25 PM 64.4 °F 59.0 °F 83% 29.89 in 6.2 mi South 13.8 mph - N/A   Overcast
2:33 PM 64.4 °F 59.0 °F 83% 29.89 in 6.2 mi South 13.8 mph - N/A   Overcast
2:37 PM 64.4 °F 59.0 °F 83% 29.89 in 6.2 mi South 12.7 mph - N/A   Overcast
2:55 PM 64.4 °F 59.0 °F 83% 29.89 in 6.2 mi South 12.7 mph - N/A   Overcast
3:13 PM 66.2 °F 60.8 °F 83% 29.89 in 6.2 mi South 12.7 mph - N/A   Overcast
3:25 PM 66.2 °F 60.8 °F 83% 29.89 in 6.2 mi South 12.7 mph - N/A   Overcast
3:55 PM 66.2 °F 60.8 °F 83% 29.89 in 6.2 mi South 10.4 mph - N/A   Overcast
4:04 PM 66.2 °F 60.8 °F 83% 29.89 in 6.2 mi South 10.4 mph - N/A   Overcast
4:11 PM 66.2 °F 60.8 °F 83% 29.89 in 6.2 mi South 11.5 mph - N/A   Overcast
4:25 PM 68.0 °F 62.6 °F 83% 29.89 in 6.2 mi SSW 10.4 mph - N/A   Mostly Cloudy
4:35 PM 68.0 °F 60.8 °F 78% 29.89 in 6.2 mi SSW 12.7 mph - N/A   Mostly Cloudy
4:55 PM 66.2 °F 60.8 °F 83% 29.89 in 6.2 mi South 11.5 mph - N/A   Mostly Cloudy
5:25 PM 66.2 °F 60.8 °F 83% 29.89 in 6.2 mi SSW 10.4 mph - N/A   Overcast
5:55 PM 66.2 °F 59.0 °F 78% 29.89 in 6.2 mi SSW 10.4 mph - N/A   Overcast
6:25 PM 64.4 °F 59.0 °F 83% 29.89 in 6.2 mi SSW 9.2 mph - N/A   Mostly Cloudy
6:55 PM 64.4 °F 57.2 °F 77% 29.89 in 6.2 mi SW 11.5 mph - N/A   Mostly Cloudy
7:25 PM 62.6 °F 57.2 °F 82% 29.92 in 6.2 mi SW 11.5 mph - N/A   Overcast
7:55 PM 62.6 °F 57.2 °F 82% 29.92 in 6.2 mi SW 11.5 mph - N/A   Overcast
8:00 PM 64 °F 57 °F 73% 29.92 in 28 mi SW 13.4 mph - -   Partly Cloudy
8:25 PM 62.6 °F 57.2 °F 82% 29.92 in 6.2 mi SSW 11.5 mph - N/A   Mostly Cloudy
8:55 PM 60.8 °F 57.2 °F 88% 29.92 in 6.2 mi SSW 8.1 mph - N/A   Partly Cloudy
9:25 PM 60.8 °F 57.2 °F 88% 29.92 in 6.2 mi SSW 8.1 mph - N/A   Partly Cloudy
9:55 PM 59.0 °F 55.4 °F 88% 29.92 in 6.2 mi South 5.8 mph - N/A   Unknown
10:25 PM 59.0 °F 55.4 °F 88% 29.92 in 6.2 mi South 5.8 mph - N/A   Overcast
10:55 PM 59.0 °F 55.4 °F 88% 29.92 in 6.2 mi SSW 6.9 mph - N/A   Overcast
11:25 PM 59.0 °F 55.4 °F 88% 29.92 in 6.2 mi SSW 8.1 mph - N/A   Overcast
11:55 PM 59.0 °F 55.4 °F 88% 29.92 in 6.2 mi SSW 9.2 mph - N/A   Overcast